Вернуться в каталог

STARLINK-5037

АктивенСвязьVLEO
NORAD 53896·PAYLOAD·🇺🇸 United States

Запущен Sep 24, 2022 с Cape Canaveral Space Force Station

Loading…

Ближайшие Пролёты (ближайшие 24 часа)

TLE

СвежийSource: CelesTrak SupGP

Эпоха: Sep 15, 2026, 02:58 UTC

1 53896C 22119L   26258.12409722 -.00010045  00000+0 -28742-3 0  2581
2 53896  53.1604 189.2284 0001263  86.3455  64.8937 15.35400893    15

Отслеживайте STARLINK-5037 в реальном времени с AllMySat

Download on the App Store